Location: Cheyres
(46.8153°N, 6.7877°E)
Time: 11:35:39
(UTC+00:00)

Gbstr 26 Del rocket - Pass Details

Date: 22 September 2021
Orbit: 492 x 1263 km, 51.8° (Epoch: 18 October)

Event Time Altitude Azimuth Distance (km) Brightness Sun altitude
Exits shadow 03:04:48 22° 295° (WNW) 2,412 5.7 -23.0°
Maximum altitude 03:10:21 80° 211° (SSW) 1,163 4.2 -22.2°
Drops below altitude 10° 03:17:12 10° 125° (SE) 2,785 6.8 -21.1°
Sets 03:19:37 0° 125° (SE) 3,626 7.4 -20.8°
